| time (UTC) | temp F | wind direction | speed MPH | gust MPH | rain 1hr in | rain 24hr in | rain mn in | humidity % | barometer mb |
| 20260509021555 | 63 | 0 | 0.0 | 1.0 | 0.00 | 0.00 | 0.00 | 43 | 1023.5 |
| 20260509020055 | 63 | 61 | 0.0 | 0.0 | 0.00 | 0.00 | 0.00 | 43 | 1023.4 |
| 20260509014553 | 64 | 0 | 0.0 | 0.0 | 0.00 | 0.00 | 0.00 | 42 | 1023.1 |
| 20260509013110 | 65 | 96 | 0.0 | 1.0 | 0.00 | 0.00 | 0.00 | 41 | 1023.1 |
| 20260509011552 | 67 | 0 | 0.0 | 6.0 | 0.00 | 0.00 | 0.00 | 39 | 1023.0 |
| 20260509010052 | 68 | 0 | 0.0 | 0.0 | 0.00 | 0.00 | 0.00 | 37 | 1023.0 |
| 20260509004553 | 70 | 0 | 0.0 | 4.0 | 0.00 | 0.00 | 0.00 | 35 | 1022.9 |
| 20260509003050 | 71 | 76 | 0.0 | 5.0 | 0.00 | 0.00 | 0.00 | 35 | 1022.9 |
| 20260509001551 | 72 | 126 | 0.0 | 4.0 | 0.00 | 0.00 | 0.00 | 34 | 1023.0 |
| 20260509000050 | 71 | 80 | 0.0 | 3.0 | 0.00 | 0.00 | 0.00 | 36 | 1023.0 |
| 20260508234551 | 72 | 88 | 0.0 | 4.0 | 0.00 | 0.00 | 0.00 | 35 | 1023.0 |
| 20260508233054 | 71 | 133 | 1.0 | 6.0 | 0.00 | 0.00 | 0.00 | 35 | 1023.1 |
| 20260508231553 | 71 | 133 | 1.0 | 4.0 | 0.00 | 0.00 | 0.00 | 37 | 1023.1 |
| 20260508230057 | 70 | 0 | 1.0 | 7.0 | 0.00 | 0.00 | 0.00 | 34 | 1023.2 |
| 20260508224601 | 71 | 142 | 1.0 | 6.0 | 0.00 | 0.00 | 0.00 | 34 | 1023.1 |
| 20260508223050 | 71 | 0 | 1.0 | 6.0 | 0.00 | 0.00 | 0.00 | 35 | 1023.4 |
| 20260508221557 | 71 | 246 | 0.0 | 6.0 | 0.00 | 0.00 | 0.00 | 35 | 1023.5 |
| 20260508220054 | 70 | 0 | 0.0 | 2.0 | 0.00 | 0.00 | 0.00 | 37 | 1023.6 |
| 20260508214551 | 69 | 0 | 1.0 | 6.0 | 0.00 | 0.00 | 0.00 | 36 | 1023.7 |
| 20260508213107 | 69 | 254 | 1.0 | 5.0 | 0.00 | 0.00 | 0.00 | 37 | 1023.9 |
| 20260508211551 | 70 | 121 | 1.0 | 5.0 | 0.00 | 0.00 | 0.00 | 36 | 1023.9 |
| 20260508210048 | 70 | 101 | 2.0 | 8.0 | 0.00 | 0.00 | 0.00 | 38 | 1024.2 |
| 20260508204553 | 68 | 288 | 1.0 | 9.0 | 0.00 | 0.00 | 0.00 | 41 | 1024.2 |
| 20260508203114 | 70 | 134 | 2.0 | 9.0 | 0.00 | 0.00 | 0.00 | 38 | 1024.4 |
| 20260508201552 | 69 | 78 | 3.0 | 9.0 | 0.00 | 0.00 | 0.00 | 40 | 1024.6 |
| 20260508200055 | 67 | 40 | 1.0 | 9.0 | 0.00 | 0.00 | 0.00 | 42 | 1024.9 |
| 20260508194549 | 67 | 0 | 1.0 | 7.0 | 0.00 | 0.00 | 0.00 | 40 | 1024.9 |
| 20260508193125 | 67 | 0 | 2.0 | 8.0 | 0.00 | 0.00 | 0.00 | 43 | 1025.0 |
| 20260508191555 | 67 | 138 | 1.0 | 8.0 | 0.00 | 0.00 | 0.00 | 42 | 1025.1 |
| 20260508190058 | 65 | 61 | 1.0 | 7.0 | 0.00 | 0.00 | 0.00 | 44 | 1025.1 |
| 20260508184614 | 65 | 111 | 3.0 | 10.0 | 0.00 | 0.00 | 0.00 | 44 | 1025.3 |
| 20260508183051 | 65 | 103 | 3.0 | 10.0 | 0.00 | 0.00 | 0.00 | 43 | 1025.5 |
| 20260508181552 | 63 | 0 | 0.0 | 6.0 | 0.00 | 0.00 | 0.00 | 45 | 1025.5 |
| 20260508180100 | 66 | 136 | 2.0 | 7.0 | 0.00 | 0.00 | 0.00 | 40 | 1025.7 |
| 20260508174615 | 65 | 149 | 2.0 | 9.0 | 0.00 | 0.00 | 0.00 | 43 | 1025.9 |
| 20260508173103 | 64 | 149 | 1.0 | 7.0 | 0.00 | 0.00 | 0.00 | 46 | 1026.0 |
| 20260508171610 | 63 | 105 | 1.0 | 5.0 | 0.00 | 0.00 | 0.00 | 48 | 1026.0 |
| 20260508170053 | 63 | 80 | 2.0 | 9.0 | 0.00 | 0.00 | 0.00 | 46 | 1026.1 |
| 20260508164554 | 62 | 109 | 2.0 | 7.0 | 0.00 | 0.00 | 0.00 | 50 | 1026.0 |
| 20260508163057 | 62 | 86 | 2.0 | 8.0 | 0.00 | 0.00 | 0.00 | 50 | 1025.9 |
| 20260508161600 | 61 | 122 | 2.0 | 10.0 | 0.00 | 0.00 | 0.00 | 52 | 1026.0 |
| 20260508160100 | 61 | 0 | 1.0 | 8.0 | 0.00 | 0.00 | 0.00 | 51 | 1026.1 |
| 20260508154553 | 59 | 0 | 1.0 | 6.0 | 0.00 | 0.00 | 0.00 | 57 | 1026.2 |
| 20260508153052 | 59 | 258 | 2.0 | 6.0 | 0.00 | 0.00 | 0.00 | 53 | 1026.0 |
| 20260508151558 | 58 | 255 | 1.0 | 5.0 | 0.00 | 0.00 | 0.00 | 57 | 1026.3 |
| 20260508150053 | 56 | 0 | 1.0 | 8.0 | 0.00 | 0.00 | 0.00 | 61 | 1026.2 |
| 20260508144550 | 54 | 0 | 0.0 | 5.0 | 0.00 | 0.00 | 0.00 | 66 | 1026.4 |
| 20260508143100 | 53 | 88 | 0.0 | 6.0 | 0.00 | 0.00 | 0.00 | 70 | 1026.8 |
| 20260508141554 | 52 | 0 | 1.0 | 4.0 | 0.00 | 0.00 | 0.00 | 76 | 1026.9 |
| 20260508140108 | 50 | 0 | 0.0 | 4.0 | 0.00 | 0.00 | 0.00 | 80 | 1027.0 |
| 20260508134606 | 49 | 0 | 0.0 | 3.0 | 0.00 | 0.01 | 0.00 | 83 | 1027.1 |
| 20260508133109 | 47 | 0 | 0.0 | 3.0 | 0.00 | 0.01 | 0.00 | 85 | 1027.1 |
| 20260508131554 | 45 | 0 | 0.0 | 4.0 | 0.00 | 0.01 | 0.00 | 86 | 1027.2 |
| 20260508130100 | 44 | 0 | 0.0 | 2.0 | 0.00 | 0.01 | 0.00 | 86 | 1027.1 |
| 20260508124553 | 43 | 0 | 0.0 | 0.0 | 0.00 | 0.01 | 0.00 | 85 | 1027.2 |
| 20260508123056 | 43 | 0 | 0.0 | 0.0 | 0.00 | 0.01 | 0.00 | 85 | 1027.3 |
| 20260508121557 | 42 | 0 | 0.0 | 0.0 | 0.00 | 0.01 | 0.00 | 84 | 1026.8 |
| 20260508120056 | 41 | 0 | 0.0 | 0.0 | 0.00 | 0.01 | 0.00 | 83 | 1026.0 |
| 20260508114606 | 41 | 0 | 0.0 | 0.0 | 0.00 | 0.01 | 0.00 | 83 | 1026.0 |
| 20260508113101 | 41 | 0 | 0.0 | 0.0 | 0.00 | 0.01 | 0.00 | 82 | 1026.0 |
| 20260508111601 | 42 | 0 | 0.0 | 0.0 | 0.00 | 0.01 | 0.00 | 82 | 1025.6 |
| 20260508110058 | 42 | 0 | 0.0 | 1.0 | 0.00 | 0.01 | 0.00 | 81 | 1025.5 |
| 20260508104557 | 42 | 0 | 0.0 | 5.0 | 0.00 | 0.02 | 0.00 | 81 | 1025.3 |
| 20260508103054 | 43 | 55 | 1.0 | 3.0 | 0.00 | 0.02 | 0.00 | 80 | 1024.9 |
| 20260508101551 | 43 | 0 | 0.0 | 2.0 | 0.00 | 0.02 | 0.00 | 80 | 1024.5 |
| 20260508100056 | 43 | 0 | 0.0 | 0.0 | 0.00 | 0.02 | 0.00 | 79 | 1024.7 |
| 20260508094607 | 44 | 0 | 0.0 | 0.0 | 0.00 | 0.02 | 0.00 | 78 | 1024.6 |
| 20260508093055 | 44 | 0 | 0.0 | 0.0 | 0.00 | 0.02 | 0.00 | 78 | 1024.7 |
| 20260508091614 | 44 | 0 | 0.0 | 0.0 | 0.00 | 0.02 | 0.00 | 78 | 1024.8 |
| 20260508090106 | 45 | 0 | 0.0 | 0.0 | 0.00 | 0.02 | 0.00 | 77 | 1024.8 |
| 20260508084553 | 45 | 0 | 0.0 | 2.0 | 0.00 | 0.02 | 0.00 | 76 | 1024.8 |
| 20260508083052 | 45 | 0 | 0.0 | 1.0 | 0.00 | 0.02 | 0.00 | 75 | 1025.1 |
| 20260508081551 | 46 | 0 | 0.0 | 1.0 | 0.00 | 0.02 | 0.00 | 74 | 1025.1 |
| 20260508080047 | 46 | 0 | 0.0 | 1.0 | 0.00 | 0.02 | 0.00 | 72 | 1025.3 |
| 20260508074551 | 46 | 0 | 0.0 | 0.0 | 0.00 | 0.02 | 0.00 | 71 | 1025.6 |
| 20260508073053 | 47 | 0 | 0.0 | 2.0 | 0.00 | 0.02 | 0.00 | 69 | 1025.5 |
| 20260508071554 | 48 | 0 | 0.0 | 1.0 | 0.00 | 0.02 | 0.00 | 66 | 1025.2 |
| 20260508070053 | 49 | 0 | 0.0 | 0.0 | 0.00 | 0.02 | 0.00 | 65 | 1025.1 |
| 20260508064555 | 50 | 0 | 0.0 | 0.0 | 0.00 | 0.02 | 0.00 | 63 | 1025.3 |
| 20260508063118 | 51 | 0 | 0.0 | 0.0 | 0.00 | 0.02 | 0.00 | 62 | 1025.3 |
| 20260508061555 | 52 | 0 | 0.0 | 0.0 | 0.00 | 0.02 | 0.00 | 62 | 1025.1 |
| 20260508060058 | 52 | 0 | 0.0 | 3.0 | 0.00 | 0.02 | 0.00 | 62 | 1025.1 |
| 20260508054555 | 52 | 360 | 1.0 | 6.0 | 0.00 | 0.02 | 0.02 | 62 | 1025.5 |
| 20260508053059 | 53 | 0 | 0.0 | 0.0 | 0.00 | 0.02 | 0.02 | 60 | 1025.2 |
| 20260508051616 | 53 | 0 | 0.0 | 2.0 | 0.00 | 0.02 | 0.02 | 59 | 1024.8 |
| 20260508050054 | 54 | 0 | 0.0 | 0.0 | 0.00 | 0.02 | 0.02 | 57 | 1024.7 |
| 20260508044551 | 54 | 0 | 0.0 | 0.0 | 0.00 | 0.02 | 0.02 | 57 | 1024.5 |
| 20260508043052 | 55 | 59 | 1.0 | 4.0 | 0.00 | 0.02 | 0.02 | 56 | 1024.7 |
| 20260508041554 | 55 | 42 | 0.0 | 4.0 | 0.00 | 0.02 | 0.02 | 54 | 1024.9 |
| 20260508040052 | 56 | 0 | 0.0 | 0.0 | 0.00 | 0.02 | 0.02 | 52 | 1024.0 |
| 20260508034552 | 56 | 0 | 0.0 | 0.0 | 0.00 | 0.02 | 0.02 | 50 | 1024.0 |
| 20260508033053 | 57 | 0 | 0.0 | 0.0 | 0.00 | 0.02 | 0.02 | 49 | 1023.9 |
| 20260508031601 | 57 | 0 | 1.0 | 3.0 | 0.00 | 0.02 | 0.02 | 49 | 1023.8 |
| 20260508030057 | 57 | 338 | 0.0 | 3.0 | 0.00 | 0.02 | 0.02 | 49 | 1023.7 |
| 20260508024549 | 58 | 306 | 0.0 | 5.0 | 0.00 | 0.02 | 0.02 | 47 | 1023.7 |
| 20260508023048 | 59 | 314 | 1.0 | 4.0 | 0.00 | 0.02 | 0.02 | 45 | 1023.8 |